This demonstration page uses our WeatherBlox Daily Observations layout. Learn more.

Left ArrowRight Arrow

41.86663, -103.66717

Hourly Observations for March 31, 2021

Temp ( °F °C ) Dew Point ( °F °C ) Humidity (%) Winds ( mph kmh ) Pressure ( in mb ) Visibility ( mi km ) Precip ( " mm )
12:53 am 00:53 Mostly Cloudy 22 -5.6 13 -10.6 68 68 NW 8 13 30.38 1029 10 16.0934 0 0
1:53 am 01:53 Mostly Clear 20 -6.7 13 -10.6 74 74 NW 5 7 30.38 1029 10 16.0934 0 0
2:53 am 02:53 Mostly Clear 22 -5.6 13 -10.6 68 68 WNW 3 6 30.39 1029 10 16.0934 0 0
3:53 am 03:53 Partly Cloudy 19 -7.2 13 -10.6 77 77 NNW 5 7 30.4 1030 10 16.0934 0 0
4:53 am 04:53 Clear 18 -7.8 11 -11.7 74 74 NNW 8 13 30.42 1030 10 16.0934 0 0
5:53 am 05:53 Clear 17 -8.3 11 -11.7 77 77 NNW 3 6 30.45 1031 10 16.0934 0 0
6:53 am 06:53 Sunny 16 -8.9 10 -12.2 77 77 NW 7 11 30.48 1032 10 16.0934 0 0
7:53 am 07:53 Sunny 22 -5.6 15 -9.4 75 75 WNW 5 7 30.48 1032 10 16.0934 0 0
8:53 am 08:53 Sunny 30 -1.1 17 -8.3 58 58 W 7 11 30.5 1033 10 16.0934 0 0
9:53 am 09:53 Sunny 36 2.2 13 -10.6 39 39 WNW 5 7 30.51 1033 10 16.0934 0 0
10:53 am 10:53 Sunny 38 3.3 12 -11.1 34 34 VRB 7 11 30.51 1033 10 16.0934 0 0
11:53 am 11:53 Sunny 40 4.4 12 -11.1 32 32 Calm 30.51 1033 10 16.0934 0 0
12:53 pm 12:53 Sunny 44 6.7 13 -10.6 28 28 NNW 9 15 30.49 1033 10 16.0934 0 0
1:53 pm 13:53 Mostly Sunny 46 7.8 13 -10.6 26 26 WNW 16 26 30.48 1032 10 16.0934 0 0
2:53 pm 14:53 Mostly Sunny 49 9.4 12 -11.1 22 22 NW 13 20 30.44 1031 10 16.0934 0 0
3:53 pm 15:53 Sunny 50 10 11 -11.7 21 21 NNW 13 20 30.43 1031 10 16.0934 0 0
4:53 pm 16:53 Sunny 51 10.6 10 -12.2 19 19 N 13 20 30.42 1030 10 16.0934 0 0
5:53 pm 17:53 Sunny 50 10 10 -12.2 20 20 NNW 12 19 30.42 1030 10 16.0934 0 0
6:53 pm 18:53 Sunny 47 8.3 13 -10.6 25 25 N 7 11 30.43 1031 10 16.0934 0 0
7:53 pm 19:53 Clear 36 2.2 14 -10 40 40 ENE 6 9 30.46 1032 10 16.0934 0 0
8:53 pm 20:53 Clear 31 -0.6 15 -9.4 52 52 ENE 6 9 30.47 1032 10 16.0934 0 0
9:53 pm 21:53 Clear 34 1.1 14 -10 44 44 SSE 6 9 30.46 1032 10 16.0934 0 0
10:53 pm 22:53 Clear 28 -2.2 15 -9.4 58 58 E 7 11 30.47 1032 10 16.0934 0 0
11:53 pm 23:53 Clear 28 -2.2 14 -10 56 56 Calm 30.45 1031 10 16.0934 0 0

Powered by AerisWeather